EW9248 Weather Reports


Display with metric or nautical units.
time (UTC)temp
F
wind
direction
speed
MPH
gust
MPH
rain 1hr
in
rain 24hr
in
rain mn
in
humidity
%
barometer
mb
20260508063636 41 0.0 0.0 0.00 0.00 0.00 91 1011.7
20260508062616 41 0.0 0.0 0.00 0.00 0.00 91 1011.8
20260508061617 40 0.0 0.0 0.00 0.00 0.00 91 1011.6
20260508060616 41 0.0 0.0 0.00 0.00 0.00 90 1011.5
20260508055656 41 0.0 0.0 0.00 0.00 0.00 90 1011.4
20260508053636 42 0.0 0.0 0.00 0.00 0.00 90 1011.7
20260508052637 41 0.0 0.0 0.00 0.00 0.00 90 1011.7
20260508051616 41 0.0 0.0 0.00 0.00 0.00 89 1011.7
20260508050616 41 0.0 0.0 0.00 0.00 0.00 89 1011.6
20260508045616 41 0.0 0.0 0.00 0.00 0.00 88 1011.7
20260508044637 42 0.0 0.0 0.00 0.00 0.00 88 1011.8
20260508043616 43 0.0 0.0 0.00 0.00 0.00 88 1011.9
20260508042716 43 0.0 1.0 0.00 0.00 0.00 87 1011.9
20260508041616 43 0.0 0.0 0.00 0.00 0.00 87 1012.0
20260508040636 43 0.0 0.0 0.00 0.00 0.00 86 1012.0
20260508035636 43 0.0 0.0 0.00 0.00 0.00 86 1011.8
20260508034637 43 0.0 0.0 0.00 0.00 0.00 86 1011.9
20260508033636 42 0.0 0.0 0.00 0.00 0.00 87 1011.8
20260508032756 42 0.0 0.0 0.00 0.00 0.00 87 1011.8
20260508031636 42 0.0 0.0 0.00 0.00 0.00 87 1011.5
20260508030617 42 0.0 0.0 0.00 0.00 0.00 88 1011.4
20260508025716 41 0.0 0.0 0.00 0.00 0.00 88 1011.2
20260508024716 41 0.0 0.0 0.00 0.00 0.00 88 1011.2
20260508023617 41 0.0 0.0 0.00 0.00 0.00 87 1010.9
20260508022616 41 0.0 0.0 0.00 0.00 0.00 86 1010.9
20260508021656 41 0.0 0.0 0.00 0.00 0.00 86 1010.7
20260508020617 41 0.0 0.0 0.00 0.00 0.00 86 1010.7
20260508015616 41 0.0 0.0 0.00 0.00 0.00 86 1010.7
20260508013617 42 0.0 0.0 0.00 0.00 0.00 84 1010.4
20260508012616 43 0.0 0.0 0.00 0.00 0.00 83 1010.3
20260508011656 43 0.0 0.0 0.00 0.00 0.00 82 1010.2
20260508010617 44 0.0 0.0 0.00 0.00 0.00 82 1010.1
20260508005616 44 0.0 0.0 0.00 0.00 0.00 80 1010.0
20260508004616 45 0.0 0.0 0.00 0.00 0.00 78 1010.0
20260508003636 46 0.0 0.0 0.00 0.00 0.00 76 1009.7
20260508002717 48 0.0 0.0 0.00 0.00 0.00 71 1009.7
20260508001616 49 0.0 0.0 0.00 0.00 0.00 66 1009.6
20260508000616 50 0.0 0.0 0.00 0.00 0.00 65 1009.5
20260507235616 51 0.0 0.0 0.00 0.00 0.00 63 1009.5
20260507234615 52 0.0 0.0 0.00 0.00 0.00 58 1009.4
20260507233635 52 0.0 2.0 0.00 0.00 0.00 57 1009.3
20260507232616 53 270 1.0 3.0 0.00 0.00 0.00 56 1009.3
20260507231636 53 270 1.0 2.0 0.00 0.00 0.00 54 1009.3
20260507230616 54 337 1.0 3.0 0.00 0.00 0.00 56 1009.3
20260507225736 54 0.0 1.0 0.00 0.00 0.00 55 1009.3
20260507224635 55 337 1.0 3.0 0.00 0.00 0.00 55 1009.2
20260507223656 55 292 3.0 7.0 0.00 0.00 0.00 55 1009.1
20260507222636 55 0.0 1.0 0.00 0.00 0.00 57 1009.2
20260507221616 55 45 1.0 3.0 0.00 0.00 0.00 54 1009.2
20260507220636 54 0.0 1.0 0.00 0.00 0.00 55 1009.2
20260507215636 55 90 1.0 2.0 0.00 0.00 0.00 56 1009.2
20260507214635 57 67 1.0 5.0 0.00 0.00 0.00 53 1009.4
20260507213617 57 67 1.0 2.0 0.00 0.00 0.00 54 1009.3
20260507212655 57 337 2.0 3.0 0.00 0.00 0.00 52 1009.5
20260507211615 57 45 3.0 5.0 0.00 0.00 0.00 52 1009.5
20260507210616 56 22 2.0 4.0 0.00 0.00 0.00 53 1009.6
20260507205635 56 22 4.0 8.0 0.00 0.00 0.00 57 1009.7
20260507204636 54 112 3.0 5.0 0.00 0.00 0.00 56 1009.5
20260507203615 56 337 2.0 4.0 0.00 0.00 0.00 52 1009.5
20260507202635 56 270 6.0 9.0 0.00 0.00 0.00 53 1009.7
20260507201636 56 0 2.0 4.0 0.00 0.00 0.00 60 1009.7
20260507200636 55 292 1.0 2.0 0.00 0.00 0.00 58 1009.9
20260507195735 55 0.0 1.0 0.00 0.00 0.00 57 1010.0
20260507194636 56 45 5.0 9.0 0.00 0.00 0.00 55 1010.1
20260507193615 56 67 3.0 13.0 0.00 0.00 0.00 52 1010.2
20260507192615 55 45 2.0 4.0 0.00 0.01 0.00 57 1010.1
20260507191656 55 0 1.0 3.0 0.00 0.01 0.00 55 1010.3
20260507190615 55 0.0 0.0 0.00 0.01 0.00 56 1010.3
20260507185615 55 45 2.0 4.0 0.00 0.02 0.00 56 1010.4
20260507184655 55 45 2.0 4.0 0.00 0.02 0.00 58 1010.6
20260507183615 56 22 4.0 6.0 0.00 0.02 0.00 57 1010.6
20260507182756 57 45 5.0 10.0 0.00 0.02 0.00 55 1010.7
20260507181635 55 337 3.0 4.0 0.00 0.02 0.00 56 1010.6
20260507180655 55 225 3.0 4.0 0.00 0.02 0.00 54 1010.8
20260507175616 56 247 6.0 12.0 0.00 0.02 0.00 58 1010.9
20260507174615 53 0.0 1.0 0.00 0.02 0.00 55 1011.0
20260507173615 53 45 2.0 3.0 0.00 0.03 0.00 56 1011.1
20260507172656 53 0.0 1.0 0.00 0.03 0.00 55 1011.2
20260507171615 54 67 1.0 5.0 0.00 0.03 0.00 54 1011.4
20260507170636 53 45 1.0 3.0 0.00 0.03 0.00 58 1011.4
20260507165615 53 0 2.0 5.0 0.00 0.03 0.00 59 1011.6
20260507164615 56 0.0 2.0 0.00 0.03 0.00 67 1011.7
20260507163635 52 45 3.0 4.0 0.00 0.03 0.00 60 1011.7
20260507161635 54 247 6.0 8.0 0.00 0.04 0.00 58 1011.8
20260507160615 53 292 2.0 4.0 0.00 0.04 0.00 60 1011.9
20260507155656 52 315 1.0 3.0 0.00 0.04 0.00 61 1012.0
20260507154615 52 0.0 2.0 0.00 0.05 0.00 60 1011.9
20260507153655 52 337 1.0 2.0 0.00 0.05 0.00 58 1012.1
20260507152756 53 270 1.0 2.0 0.00 0.06 0.00 57 1012.2
20260507151615 53 315 1.0 4.0 0.00 0.06 0.00 58 1012.4
20260507150615 53 292 6.0 8.0 0.00 0.06 0.00 60 1012.4
20260507145615 52 270 1.0 2.0 0.00 0.06 0.00 61 1012.3
20260507144656 52 0 1.0 2.0 0.00 0.06 0.00 64 1012.6
20260507143635 51 292 1.0 3.0 0.00 0.07 0.00 60 1012.7
20260507140717 49 0.0 1.0 0.00 0.08 0.00 71 1012.7
20260507135617 49 0.0 2.0 0.00 0.08 0.00 67 1012.7
20260507134718 49 247 4.0 8.0 0.00 0.08 0.00 71 1012.9
20260507133657 48 292 2.0 3.0 0.00 0.09 0.00 72 1013.0
20260507132658 47 292 2.0 3.0 0.00 0.10 0.00 75 1013.0
20260507131617 46 0.0 1.0 0.00 0.10 0.00 76 1013.0
20260507130637 45 135 2.0 3.0 0.00 0.11 0.00 80 1013.0
20260507125616 45 315 1.0 1.0 0.00 0.13 0.00 87 1013.0
20260507124617 44 0.0 1.0 0.00 0.15 0.00 92 1013.0
20260507123637 42 0.0 1.0 0.00 0.17 0.00 94 1013.0
20260507122616 41 0.0 0.0 0.00 0.19 0.00 95 1013.0
20260507121616 40 0.0 0.0 0.00 0.20 0.00 95 1013.0
20260507120637 39 0.0 1.0 0.00 0.21 0.00 95 1012.9
20260507115616 39 0.0 0.0 0.00 0.21 0.00 95 1013.0
20260507114617 38 0.0 0.0 0.00 0.22 0.00 95 1012.9
20260507113643 37 0.0 0.0 0.00 0.22 0.00 95 1012.8
20260507112639 36 0.0 0.0 0.00 0.23 0.00 94 1012.7
20260507111616 36 0.0 0.0 0.00 0.24 0.00 94 1012.6
20260507110636 36 0.0 0.0 0.00 0.26 0.00 94 1012.4
20260507105717 36 0.0 0.0 0.00 0.27 0.00 94 1012.3
20260507104656 35 0.0 0.0 0.00 0.27 0.00 94 1012.4
20260507103657 35 0.0 0.0 0.00 0.27 0.00 94 1012.4
20260507102616 35 0.0 0.0 0.00 0.27 0.00 94 1012.4
20260507101616 35 0.0 0.0 0.00 0.27 0.00 94 1012.1
20260507100616 35 0.0 0.0 0.00 0.27 0.00 93 1012.0
20260507095616 35 0.0 0.0 0.00 0.28 0.00 93 1012.0
20260507094657 36 0.0 0.0 0.00 0.28 0.00 93 1011.9
20260507093616 36 0.0 0.0 0.00 0.28 0.00 93 1011.9
20260507092636 36 0.0 0.0 0.00 0.28 0.00 93 1012.1
20260507091637 37 0.0 0.0 0.00 0.29 0.00 93 1012.2
20260507090616 37 0.0 0.0 0.00 0.29 0.00 93 1012.2
20260507085616 38 0.0 0.0 0.00 0.29 0.00 92 1012.2
20260507084616 39 0.0 0.0 0.00 0.29 0.00 92 1012.1
20260507083637 39 0.0 0.0 0.00 0.29 0.00 92 1012.2
20260507082616 39 0.0 0.0 0.00 0.29 0.00 91 1012.2
20260507081616 40 0.0 0.0 0.00 0.29 0.00 91 1012.3
20260507080617 41 0.0 0.0 0.00 0.29 0.00 91 1012.3
20260507075616 41 0.0 0.0 0.00 0.29 0.00 90 1012.3
20260507074616 42 0.0 0.0 0.00 0.29 0.00 89 1012.2
20260507073616 42 0.0 0.0 0.00 0.29 0.00 88 1012.2
20260507072617 43 0.0 0.0 0.00 0.29 0.00 88 1012.1
20260507071616 43 0.0 0.0 0.00 0.29 0.00 88 1012.1
20260507070616 43 0.0 1.0 0.00 0.29 0.00 89 1012.3
20260507065656 43 0.0 0.0 0.00 0.29 0.00 90 1012.3
20260507064637 43 0.0 1.0 0.00 0.29 0.00 91 1012.2